EET,Max TemperatureF,Mean TemperatureF,Min TemperatureF,Max Dew PointF,MeanDew PointF,Min DewpointF,Max Humidity, Mean Humidity, Min Humidity, Max Sea Level PressureIn, Mean Sea Level PressureIn, Min Sea Level PressureIn, Max VisibilityMiles, Mean VisibilityMiles, Min VisibilityMiles, Max Wind SpeedMPH, Mean Wind SpeedMPH, Max Gust SpeedMPH,PrecipitationIn, CloudCover, Events, WindDirDegrees
2013-2-1,59,55,51,45,44,43,72,64,59,29.95,29.92,29.89,6,6,6,34,31,46,0.00,2,,310
2013-2-2,62,61,60,52,47,41,72,60,48,29.98,29.96,29.95,6,6,6,18,12,,0.00,4,,202
2013-2-3,64,62,60,55,55,55,82,75,73,30.09,30.06,30.04,6,6,6,23,19,,0.00,1,,154
2013-2-4,62,61,60,52,48,46,72,62,59,30.12,30.08,30.04,6,6,6,23,20,,0.00,4,,106
2013-2-5,62,62,62,55,55,55,77,77,77,29.77,29.76,29.74,6,6,6,22,21,,0.00,3,,67
2013-2-6,62,58,55,52,48,45,88,63,52,29.74,29.71,29.68,6,6,6,17,8,,0.00,3,Rain-Thunderstorm,322
2013-2-7,64,63,62,48,48,48,59,58,56,29.86,29.85,29.83,6,6,6,22,21,,0.00,3,,200
2013-2-8,64,60,57,57,53,50,100,77,68,29.74,29.71,29.68,6,6,4,23,19,34,0.00,3,Thunderstorm,185
2013-2-9,60,60,59,48,46,45,63,60,59,29.98,29.96,29.95,6,6,6,16,16,,0.00,3,,207
2013-2-10,60,58,57,50,47,43,77,65,52,29.95,29.93,29.89,6,6,6,18,13,,0.00,3,,210
2013-2-11,59,56,53,43,41,37,67,54,48,29.92,29.89,29.86,6,6,6,34,22,,0.00,3,,263
2013-2-12,60,60,60,41,40,39,48,46,45,30.06,30.06,30.06,6,6,6,8,8,,0.00,1,,265
2013-2-13,60,58,55,46,44,43,63,58,52,30.06,30.04,30.01,6,6,6,20,15,,0.00,3,,129
2013-2-14,59,56,53,50,48,45,77,72,63,29.71,29.69,29.68,6,6,6,22,13,34,0.00,4,Rain-Thunderstorm,210
2013-2-15,62,58,55,48,45,43,72,62,48,29.80,29.76,29.71,6,6,6,29,19,,0.00,4,Rain,258
2013-2-16,59,58,57,46,45,45,63,61,59,30.04,30.02,30.01,6,6,6,15,13,,0.00,3,,290
2013-2-17,62,56,51,50,48,46,88,69,59,29.95,29.91,29.86,6,6,6,14,8,,0.00,4,,239
2013-2-18,59,56,53,46,45,43,72,64,59,29.98,29.97,29.95,6,6,6,21,15,,0.00,3,,304
2013-2-19,60,60,60,48,48,48,63,63,63,29.95,29.93,29.92,6,6,6,16,16,,0.00,3,,207
2013-2-20,62,60,59,50,44,41,68,53,45,29.98,29.95,29.89,6,6,6,25,21,,0.00,2,,292
2013-2-21,60,60,59,48,48,48,67,65,63,29.92,29.92,29.92,6,6,6,18,18,,0.00,6,,115
2013-2-22,62,61,60,54,53,52,77,73,72,29.65,29.61,29.56,6,6,6,34,30,51,0.00,3,,96
2013-2-23,64,62,60,54,52,50,77,68,64,29.95,29.91,29.86,6,6,6,22,20,,0.00,3,,282
2013-2-24,64,60,57,55,55,54,88,78,73,30.15,30.14,30.12,6,6,6,10,8,,0.00,4,,158
2013-2-25,62,61,60,55,54,52,82,74,68,30.15,30.14,30.09,6,6,6,18,13,,0.00,3,,105
2013-2-26,64,63,62,55,54,54,73,72,72,30.04,30.03,30.01,6,6,6,8,8,,0.00,3,,150
2013-2-27,62,58,55,54,53,52,88,76,68,30.01,30.00,29.98,6,6,6,17,9,,0.00,2,,279
2013-2-28,59,59,57,50,49,48,72,70,67,30.04,30.04,30.04,6,6,6,25,25,,0.00,1,,310